Regional Weather Roundup
Issued by NWS Charleston, WV

Home | Current Version | Previous Version | Text Only | Print | Product List | Glossary On
Versions: 1 2 3 4 5 6 7 8 9 10 11 12 13 14 15 16 17 18 19 20 21 22 23 24 25 26 27 28 29 30 31 32 33 34 35 36 37 38 39 40 41 42 43 44 45 46 47 48 49 50
000
ASUS41 KRLX 051010
RWRRLX
West Virginia Regional Weather Roundup
National Weather Service Charleston WV
600 AM EDT TUE MAY 05 2015

Note: "fair" indicates few or no clouds below 12,000 feet with no
significant weather and/or obstructions to visibility.

WVZ003-051100-
Northern Panhandle of West Virginia

CITY           SKY/WX    TMP DP  RH WIND       PRES   REMARKS
WHEELING       CLOUDY    61  58  90 S5        30.24R
$$

WVZ009-051100-
Northwest West Virginia

CITY           SKY/WX    TMP DP  RH WIND       PRES   REMARKS
PARKERSBURG    PTCLDY    60  57  89 CALM      30.25R
$$

WVZ006-051100-
Western West Virginia

CITY           SKY/WX    TMP DP  RH WIND       PRES   REMARKS
HUNTINGTON     PTCLDY    59  53  80 S6        30.24R
$$

WVZ015-051100-
West Central West Virginia

CITY           SKY/WX    TMP DP  RH WIND       PRES   REMARKS
CHARLESTON       N/A     59  54  83 CALM      30.25R
$$

WVZ022-031-051100-
North Central West Virginia

CITY           SKY/WX    TMP DP  RH WIND       PRES   REMARKS
CLARKSBURG     CLOUDY    60  54  80 CALM      30.24R
MORGANTOWN     CLOUDY    63  53  70 CALM      30.25R
$$

WVZ025-035-042-045-051100-
Southern West Virginia

CITY           SKY/WX    TMP DP  RH WIND       PRES   REMARKS
BECKLEY        CLEAR     55  44  66 S3        30.32R
LOGAN          MOCLDY    61  52  72 CALM      30.26R
BLUEFIELD      CLEAR     61  45  55 W6        30.35R
LEWISBURG      CLEAR     52  46  80 N3        30.32R
$$

WVZ047-051100-
Northern Mountains of West Virginia

CITY           SKY/WX    TMP DP  RH WIND       PRES   REMARKS
ELKINS         CLOUDY    53  49  86 CALM      30.29R
$$

WVZ052-051100-
Eastern Panhandle of West Virginia

CITY           SKY/WX    TMP DP  RH WIND       PRES   REMARKS
MARTINSBURG    PTCLDY    59  50  72 S3        30.22R
PETERSBURG     CLOUDY    56  52  84 CALM      30.26R
$$


USA.gov is the U.S. government's official web portal to all federal, state and local government web resources and services.